Regional Weather Roundup
Issued by NWS Raleigh/Durham, NC

Home | Current Version | Previous Version | Text Only | Print | Product List | Glossary On
Versions: 1 2 3 4 5 6 7 8 9 10 11 12 13 14 15 16 17 18 19 20 21 22 23 24 25 26 27 28 29 30 31 32 33 34 35 36 37 38 39 40 41 42 43 44 45 46 47 48 49 50
000
ASUS42 KRAH 290510
RWRRAH
NORTH CAROLINA WEATHER ROUNDUP
NATIONAL WEATHER SERVICE RALEIGH NC
100 AM EDT MON MAY 29 2017

NOTE: "FAIR" INDICATES FEW OR NO CLOUDS BELOW 12,000 FEET WITH NO
SIGNIFICANT WEATHER AND/OR OBSTRUCTIONS TO VISIBILITY.

NCZ001-053-055-056-065-067-290600-
WESTERN NORTH CAROLINA

CITY           SKY/WX    TMP DP  RH WIND       PRES   REMARKS
ASHEVILLE      CLEAR     61  58  90 CALM      29.98S
JEFFERSON      CLOUDY    63  57  81 W9        29.98S
MORGANTON      PTCLDY    64  59  85 CALM      29.95S
HICKORY        PTCLDY    68  59  73 CALM      29.91R
RUTHERFORDTON  CLEAR     67  62  85 W13       29.93R
MOUNT AIRY     CLEAR     68  59  72 CALM      29.92R
BOONE          PTCLDY    63  55  77 W9        29.99S
$$

NCZ021-022-025-041-071-084-088-290600-
CENTRAL NORTH CAROLINA

CITY           SKY/WX    TMP DP  RH WIND       PRES   REMARKS
CHARLOTTE      PTCLDY    68  66  93 NW3       29.90R
GREENSBORO     PTCLDY    68  63  84 W8        29.87S
WINSTON-SALEM  CLEAR     71  60  68 W5        29.90R
RALEIGH-DURHAM MOCLDY    71  67  87 W3        29.84S
FORT BRAGG     CLEAR     76  71  83 SW6       29.83F
FAYETTEVILLE   CLEAR     76  72  87 SW8       29.83F
BURLINGTON     CLEAR     69  63  81 W3        29.86S
LAURINBURG     CLEAR     72  71  97 SW5       29.85F
$$

NCZ011-015-027-028-043-044-047-080-103-290600-
NORTHEASTERN NORTH CAROLINA

CITY           SKY/WX    TMP DP  RH WIND       PRES   REMARKS
ROCKY MT-WILSO MOCLDY    72  70  93 SW3       29.81F
GREENVILLE     RAIN      77  68  73 W3        29.82F
WASHINGTON     CLOUDY    74  68  81 CALM      29.79F
ELIZABETH CITY CLOUDY    71  71 100 CALM      29.80F FOG
MANTEO         CLOUDY    70  69  98 CALM      29.80F
CAPE HATTERAS  CLOUDY    76  72  87 W9        29.79F
$$

NCZ078-087-090-091-093-098-101-290600-
SOUTHEASTERN NORTH CAROLINA

CITY           SKY/WX    TMP DP  RH WIND       PRES   REMARKS
LUMBERTON      CLEAR     72  71  97 SW8       29.84F
GOLDSBORO      PTCLDY    76  75  98 SW7       29.80F
KINSTON        PTCLDY    75  70  83 SW5       29.82F
KENANSVILLE    CLOUDY    73  70  88 SW7       29.82F
NEW BERN       CLOUDY    76  71  85 SW8       29.81F
CHERRY POINT   NOT AVBL
BEAUFORT       CLOUDY    75  72  90 SW10      29.80F
JACKSONVILLE   NOT AVBL
WILMINGTON     CLOUDY    70  68  93 SW6       29.85F
$$




USA.gov is the U.S. government's official web portal to all federal, state and local government web resources and services.